(3) Juno
ephemeris date magn radius delta ra dec elong phase
Today20 Jul 202511.03.348 AU2.888 AU15h11m-02°44'108.3°16.8°
Opposition26 Jul 20269.12.800 AU1.806 AU20h09m-04°57'165.2°5.3°
(3) Juno - 2025-07-20
astro.vanbuitenen.nl


 
-1 year
-1 month
-1 day
Now
+1 day
+1 month
+1 year

The interactive orbit chart above shows the body's path through the solar system and its position at the given date. Green and blue lines are shown perpendicular to the ecliptic plane: Green if the path is above the ecliptic plane, blue if it is below. (Left-click and drag to rotate the view; Right-click and drag to move the view; Use scroll wheel to zoom in our out.)

The orbital elements of Juno are:

            e (Eccentricity)                : 0.2559473
            a (Semimajor axis)              : 2.6706696
            i (Inclination)                 : 12.98651
            Ω (Longitude of ascending node) : 169.82992
            ω (Argument of perihelion)      : 247.85974
            M (Mean anomaly)                : 172.45499
            Epoch                           : 2025 May 05

            L (Longitude of perihelion)     : 237.16663
            B (Latitude of perihelion)      : -12.01405
            P (Orbital period in years)     : 4.36            
        

The light curve chart below shows the estimated development of the minor planet's magnitude.


The all-sky chart below shows the path of the minor planet over the same period as the light curve. The current position is marked yellow.





The following chart shows the path of the minor planet in the next few days. The field of view is optimized for (~10x50) binoculars and finderscopes. A more printer-friendly version of the same chart can be found below.




Ephemerides:
Date       Time       RA (2000)    DEC (2000)    delta   radius  elong  phase   PA    magn
2025-07-20 00:00 UT   15 11 00.5   -02 44 49     2.888    3.348  108.3   16.8   111   11.0 
2025-07-20 07:25 UT   15 11 02.5   -02 46 04     2.892    3.348  108.0   16.8   111   11.0 
2025-07-21 00:00 UT   15 11 07.3   -02 48 53     2.901    3.348  107.4   16.8   111   11.0 
2025-07-22 00:00 UT   15 11 15.3   -02 53 02     2.914    3.348  106.5   16.9   110   11.0 
2025-07-23 00:00 UT   15 11 24.4   -02 57 15     2.927    3.347  105.7   17.0   110   11.0 
2025-07-24 00:00 UT   15 11 34.6   -03 01 32     2.940    3.347  104.8   17.1   110   11.1 
2025-07-25 00:00 UT   15 11 45.9   -03 05 53     2.953    3.347  103.9   17.1   110   11.1 
2025-07-26 00:00 UT   15 11 58.3   -03 10 19     2.967    3.346  103.1   17.2   109   11.1 
2025-07-27 00:00 UT   15 12 11.8   -03 14 48     2.980    3.346  102.2   17.3   109   11.1 
2025-07-28 00:00 UT   15 12 26.4   -03 19 21     2.993    3.346  101.4   17.3   109   11.1 
2025-07-29 00:00 UT   15 12 42.0   -03 23 57     3.007    3.345  100.6   17.4   109   11.1 
2025-07-30 00:00 UT   15 12 58.6   -03 28 37     3.020    3.345   99.7   17.4   108   11.1 
2025-07-31 00:00 UT   15 13 16.4   -03 33 21     3.034    3.345   98.9   17.4   108   11.1 
2025-08-01 00:00 UT   15 13 35.1   -03 38 07     3.047    3.344   98.1   17.5   108   11.1 
2025-08-02 00:00 UT   15 13 54.9   -03 42 57     3.061    3.344   97.2   17.5   108   11.2 
2025-08-03 00:00 UT   15 14 15.7   -03 47 49     3.074    3.343   96.4   17.6   107   11.2 
2025-08-04 00:00 UT   15 14 37.5   -03 52 45     3.088    3.343   95.6   17.6   107   11.2 
2025-08-05 00:00 UT   15 15 00.3   -03 57 43     3.102    3.343   94.8   17.6   107   11.2 
2025-08-06 00:00 UT   15 15 24.0   -04 02 44     3.115    3.342   94.0   17.6   107   11.2 
2025-08-07 00:00 UT   15 15 48.8   -04 07 48     3.129    3.342   93.2   17.6   106   11.2 
2025-08-08 00:00 UT   15 16 14.5   -04 12 54     3.143    3.341   92.4   17.6   106   11.2 
2025-08-09 00:00 UT   15 16 41.1   -04 18 02     3.156    3.341   91.6   17.7   106   11.2 
2025-08-10 00:00 UT   15 17 08.7   -04 23 12     3.170    3.341   90.8   17.7   106   11.2 
2025-08-11 00:00 UT   15 17 37.3   -04 28 25     3.183    3.340   90.0   17.7   105   11.2 
2025-08-12 00:00 UT   15 18 06.7   -04 33 39     3.197    3.340   89.2   17.7   105   11.3 
2025-08-13 00:00 UT   15 18 37.1   -04 38 56     3.211    3.339   88.4   17.7   105   11.3 
2025-08-14 00:00 UT   15 19 08.3   -04 44 14     3.224    3.339   87.6   17.6   105   11.3 
2025-08-15 00:00 UT   15 19 40.5   -04 49 35     3.238    3.338   86.8   17.6   104   11.3 
2025-08-16 00:00 UT   15 20 13.5   -04 54 56     3.252    3.338   86.0   17.6   104   11.3 
2025-08-17 00:00 UT   15 20 47.4   -05 00 20     3.265    3.337   85.2   17.6   104   11.3 
2025-08-18 00:00 UT   15 21 22.2   -05 05 45     3.279    3.337   84.5   17.6   104   11.3 
2025-08-19 00:00 UT   15 21 57.9   -05 11 11     3.292    3.336   83.7   17.5   104   11.3 


    Terminology:
            
    delta:  distance between minor planet and earth in AU
    radius: distance between minor planet and sun in AU
    magn:   magnitude (brightness) estimate    
    ra:     right ascension in hours (24h = 360deg)
    dec:    declination in degrees
    elong:  elongation in degrees (angle sun-earth-minor planet)    
    phase:  phase angle in degrees (angle sun-minor planet-earth)        
    AU:     Astronomical Unit (mean distance between earth and sun: 149597870.7 km
    

Orbital elements provided by the MPC (Minor Planet Center).
Calculations by a modified version of AAPlus, a C# implementation of the AA+ project by PJ Naughter from the algorithms presented in the book "Astronomical Algorithms" by Jean Meeus.
NGC2000 dso catalog and star labels from VizieR as provided by the Strasbourg astronomical Data Center.
Tycho2 catalog from the ESO archive.